Regional Weather Roundup
Issued by NWS

Home | Current Version | Previous Version | Graphics & Text | Print | Product List | Glossary Off
Versions: 1 2 3 4 5 6 7 8 9 10 11 12 13 14 15 16 17 18 19 20 21 22 23 24 25 26 27 28 29 30 31 32 33 34 35 36 37 38 39 40 41 42 43 44 45 46 47 48 49 50

000
ASUS43 KDTX 061410
RWRMI
MICHIGAN HOURLY REGIONAL WEATHER ROUNDUP
NATIONAL WEATHER SERVICE DETROIT/PONTIAC MI
900 AM EST FRI MAR 06 2015

NOTE: "FAIR" INDICATES FEW OR NO CLOUDS BELOW 12,000 FEET WITH NO
SIGNIFICANT WEATHER AND/OR OBSTRUCTION TO VISIBILITY.

MIZ047>049-052>055-059>063-066>070-074>076-081>083-061500-
SOUTHEAST LOWER MICHIGAN

CITY           SKY/WX    TMP DP  RH WIND       PRES   REMARKS
ADRIAN         MOSUNNY    4   1  88 SW6       30.49R
ALMA           MOSUNNY    6   2  84 SW9       30.39S
ANN ARBOR      MOSUNNY    3   0  87 SW5       30.47R
BAD AXE        SUNNY      7   3  82 S8        30.40S
DETROIT CITY   SUNNY     14   3  61 SW12      30.48S
DETROIT        MOSUNNY    8   2  76 S7        30.50R
FLINT          MOSUNNY   10   2  69 SW7       30.42F
GROSSE ILE     MOSUNNY   10   5  79 S8        30.49R
HILLSDALE      SUNNY      7   2  78 SW7       30.42S
HOWELL         MOSUNNY    9   2  75 SW9       30.41F

CITY           SKY/WX    TMP DP  RH WIND       PRES   REMARKS
JACKSON        SUNNY      8   2  76 SW9       30.42F
LAMBERTVILLE   MOSUNNY   14   7  73 SW6       30.51R
LANSING        MOSUNNY    9   1  70 SW13      30.42F WCI  -7
LAPEER         NOT AVBL
MASON          MOSUNNY    6   2  85 S3        30.42F
MONROE         MOSUNNY    7   1  78 SW8       30.49R
MT. CLEMENS    SUNNY      0  -6  77 CALM      30.45S
PONTIAC        MOSUNNY    7   2  80 SW7       30.42S
PORT HOPE        N/A      8   0  69 VRB6      30.38S
PORT HURON     MOSUNNY    7   1  78 S6        30.46F
TRI CITIES     SUNNY      7   1  76 S9        30.40F
YPSILANTI      MOSUNNY    8   1  73 SW10      30.48S WCI  -6
$$
MIZ043>046-050>051-056>058-064>065-071>073-077>080-061500-
SOUTHWEST LOWER MICHIGAN

CITY           SKY/WX    TMP DP  RH WIND       PRES   REMARKS
BATTLE CREEK   MOSUNNY    6  -1  73 SW9       30.42S
BENTON HARBOR  MOSUNNY    5  -1  76 S9        30.45S
BIG RAPIDS     FLURRIES  13  10  87 SW8       30.32S
COLDWATER      SUNNY      5   0  80 SW9       30.45S
HOLLAND        MOSUNNY    8   2  76 S12       30.42S WCI  -7
GRAND RAPIDS   CLOUDY     8   2  76 S12       30.40S WCI  -7
KALAMAZOO      MOSUNNY    5  -1  76 SW10      30.44S WCI -10
MARSHALL       MOSUNNY  N/A N/A N/A SW8       30.43S
MUSKEGON       PTSUNNY   17  10  74 S10       30.39R
$$
MIZ016>042-061500-
NORTHERN LOWER MICHIGAN

CITY           SKY/WX    TMP DP  RH WIND       PRES   REMARKS
ALPENA         MOSUNNY   10   3  73 SW12      30.28F WCI  -5
BEAVER ISLAND  SUNNY     13   6  72 SW13G18   30.22R WCI  -1
BELLAIRE       SUNNY     12   7  78 S7        30.28S
CADILLAC       LGT SNOW  10   7  86 SW9       30.24F
CHARLEVOIX     SUNNY     12   5  73 CALM      30.26F
FRANKFORT      SUNNY     19  10  68 SW13G22   30.27F
GAYLORD        SUNNY      9   4  80 SW17G28   30.20S WCI  -9
GRAYLING       SUNNY      8   4  83 SW10      30.25F WCI  -6
HARBOR SPRINGS PTSUNNY    9   4  78 SW6       30.23F
HOUGHTON LAKE  MOSUNNY    7   2  80 S8        30.28F
MANISTEE       SUNNY     10   5  79 S5        30.30F
OSCODA         SUNNY      7   1  79 SW14      30.33F WCI -10
PELLSTON       SUNNY     12   4  70 SW8G21    30.23F
TRAVERSE CITY  PTSUNNY   14   6  70 SW12G17   30.26F
$$
MIZ007>008-015-061500-
EASTERN UPPER MICHIGAN

CITY           SKY/WX    TMP DP  RH WIND       PRES   REMARKS
KINROSS        MOSUNNY    9   3  78 SW7       30.19S
MACKINAC ISLAN MOSUNNY   11   3  70 SW10G17   30.21S WCI  -3
NEWBERRY       MOSUNNY    7   1  76 SW16G26   30.14F WCI -11
S. S. MARIE    MOSUNNY   -3  -7  82 E3        30.19F
$$
MIZ004>006-011>014-085-061500-
CENTRAL UPPER MICHIGAN

CITY           SKY/WX    TMP DP  RH WIND       PRES   REMARKS
MANISTIQUE     MOSUNNY    8   0  72 SW14      30.18F WCI  -9
ESCANABA       MOSUNNY    3  -2  78 SW8       30.18F
MENOMINEE      MOSUNNY    5  -2  72 SW10G18   30.20F WCI -10
SAWYER-GWINN   SUNNY      3  -4  72 SW9       30.05F
$$
MIZ001>003-009>011-084-061500-
WESTERN UPPER MICHIGAN

CITY           SKY/WX    TMP DP  RH WIND       PRES   REMARKS
IRON MOUNTAIN  MOSUNNY    2  -6  69 SE6       30.08F
HOUGHTON       CLOUDY     9  -1  64 SW6       29.94F
COPPER HARBOR    N/A     11  -1  58 MISG      29.96S
IRONWOOD       CLOUDY    10   3  72 SW14G24   29.95S WCI  -5
$$

ABBREVIATIONS USED IN REMARKS
   TC - TEMPERATURE IN CELSIUS
  WCI - WIND CHILL INDEX
   HX - HEAT INDEX
  VSB - VISIBILITY



USA.gov is the U.S. government's official web portal to all federal, state and local government web resources and services.